EW1065 Weather Reports


Display with metric or nautical units.
time (UTC)temp
F
wind
direction
speed
MPH
gust
MPH
rain 1hr
in
rain 24hr
in
rain mn
in
humidity
%
barometer
mb
20260903065520 72 0.0 0.0 0.00 0.00 0.00 98 1017.3
20260903064520 72 0.0 0.0 0.00 0.00 0.00 98 1017.3
20260903063520 72 0.0 0.0 0.00 0.00 0.00 98 1017.3
20260903062520 72 0.0 0.0 0.00 0.00 0.00 98 1017.4
20260903061600 73 0.0 0.0 0.00 0.00 0.00 98 1017.5
20260903060520 73 0.0 0.0 0.00 0.00 0.00 98 1017.4
20260903055520 73 0.0 0.0 0.00 0.00 0.00 98 1017.5
20260903054519 73 0.0 0.0 0.00 0.00 0.00 98 1017.5
20260903053520 73 0.0 0.0 0.00 0.00 0.00 98 1017.5
20260903052520 73 0.0 0.0 0.00 0.00 0.00 98 1017.5
20260903051520 73 0.0 0.0 0.00 0.00 0.00 97 1017.5
20260903050520 73 0.0 0.0 0.00 0.00 0.00 97 1017.3
20260903045520 74 0.0 0.0 0.00 0.00 0.00 97 1017.3
20260903044600 74 0.0 0.0 0.00 0.00 0.00 97 1017.4
20260903043519 74 0.0 0.0 0.00 0.00 0.00 97 1017.4
20260903042600 74 0.0 0.0 0.00 0.00 0.00 97 1017.3
20260903041520 74 0.0 0.0 0.00 0.00 0.00 97 1017.3
20260903040520 74 0.0 0.0 0.00 0.00 0.00 97 1017.3
20260903035559 74 0.0 0.0 0.00 0.00 0.00 97 1017.3
20260903034520 75 0.0 0.0 0.00 0.00 0.00 96 1017.3
20260903033519 75 0.0 0.0 0.00 0.00 0.00 96 1017.3
20260903032520 75 0.0 0.0 0.00 0.00 0.00 96 1017.2
20260903031519 75 0.0 0.0 0.00 0.00 0.00 96 1017.2
20260903030600 75 0.0 0.0 0.00 0.00 0.00 96 1017.2
20260903025520 76 0.0 0.0 0.00 0.00 0.00 96 1017.2
20260903024519 76 0.0 0.0 0.00 0.00 0.00 95 1017.2
20260903023520 76 0.0 0.0 0.00 0.00 0.00 95 1017.1
20260903022520 76 0.0 0.0 0.00 0.00 0.00 95 1017.1
20260903021520 76 0.0 0.0 0.00 0.00 0.00 94 1017.1
20260903020520 77 0.0 0.0 0.00 0.00 0.00 94 1017.1
20260903015519 77 0.0 0.0 0.00 0.00 0.00 94 1017.0
20260903014520 77 0.0 0.0 0.00 0.00 0.00 93 1017.0
20260903013520 78 0.0 0.0 0.00 0.00 0.00 93 1016.9
20260903012520 78 0.0 0.0 0.00 0.00 0.00 92 1016.8
20260903011520 79 0.0 0.0 0.00 0.00 0.00 92 1016.8
20260903010520 79 0.0 0.0 0.00 0.00 0.00 91 1016.7
20260903005520 80 0.0 0.0 0.00 0.00 0.00 91 1016.6
20260903004520 80 0.0 0.0 0.00 0.00 0.00 89 1016.6
20260903003520 81 0.0 0.0 0.00 0.00 0.00 89 1016.6
20260903002520 81 0.0 0.0 0.00 0.00 0.00 88 1016.6
20260903001520 82 0.0 0.0 0.00 0.00 0.00 87 1016.6
20260903000520 83 0.0 0.0 0.00 0.00 0.00 86 1016.5
20260902235519 84 0.0 0.0 0.00 0.00 0.00 84 1016.5
20260902234520 85 0.0 0.0 0.00 0.00 0.00 83 1016.5
20260902233520 86 0.0 0.0 0.00 0.00 0.00 82 1016.6
20260902232520 87 0.0 0.0 0.00 0.00 0.00 80 1016.7
20260902231537 88 0.0 0.0 0.00 0.00 0.00 80 1016.7
20260902230520 89 0.0 0.0 0.00 0.00 0.00 77 1016.8
20260902225520 90 0.0 0.0 0.00 0.00 0.00 75 1016.7
20260902224520 92 0.0 0.0 0.00 0.00 0.00 71 1016.8
20260902223520 93 0.0 0.0 0.00 0.00 0.00 66 1016.8
20260902222520 95 0.0 0.0 0.00 0.00 0.00 59 1016.9
20260902221600 98 0.0 0.0 0.00 0.00 0.00 54 1017.0
20260902220519 97 0.0 0.0 0.00 0.00 0.00 55 1017.1
20260902215520 97 0.0 1.0 0.00 0.00 0.00 52 1017.1
20260902214520 97 0.0 1.0 0.00 0.00 0.00 52 1017.1
20260902213520 97 0.0 3.0 0.00 0.00 0.00 51 1017.1
20260902212519 97 0.0 1.0 0.00 0.00 0.00 52 1017.2
20260902211520 96 0.0 1.0 0.00 0.00 0.00 55 1017.4
20260902210559 96 0.0 1.0 0.00 0.00 0.00 55 1017.3
20260902205520 95 0.0 1.0 0.00 0.00 0.00 55 1017.4
20260902204520 95 0.0 0.0 0.00 0.00 0.00 56 1017.4
20260902203520 96 0.0 1.0 0.00 0.00 0.00 52 1017.5
20260902202520 97 0.0 3.0 0.00 0.00 0.00 53 1017.6
20260902201520 97 0.0 0.0 0.00 0.00 0.00 53 1017.7
20260902200520 96 0.0 1.0 0.00 0.00 0.00 51 1017.7
20260902195520 97 0.0 0.0 0.00 0.00 0.00 52 1017.8
20260902194520 98 0.0 1.0 0.00 0.00 0.00 54 1018.0
20260902193519 97 0.0 2.0 0.00 0.00 0.00 50 1018.0
20260902192520 97 0.0 2.0 0.00 0.00 0.00 51 1018.2
20260902191519 97 0.0 2.0 0.00 0.00 0.00 56 1018.3
20260902190520 95 0.0 0.0 0.00 0.00 0.00 56 1018.3
20260902185600 95 0.0 2.0 0.00 0.00 0.00 56 1018.5
20260902184520 94 0.0 1.0 0.00 0.00 0.00 54 1018.5
20260902183520 93 0.0 0.0 0.00 0.00 0.00 57 1018.6
20260902182520 95 0.0 1.0 0.00 0.00 0.00 53 1018.7
20260902181520 96 0.0 1.0 0.00 0.00 0.00 51 1018.7
20260902180520 96 0.0 2.0 0.00 0.00 0.00 52 1018.8
20260902175520 96 0.0 2.0 0.00 0.00 0.00 50 1018.8
20260902174519 96 0.0 1.0 0.00 0.00 0.00 53 1018.9
20260902173520 96 0.0 1.0 0.00 0.00 0.00 51 1019.2
20260902172520 95 0.0 1.0 0.00 0.00 0.00 51 1019.2
20260902171520 95 203 1.0 4.0 0.00 0.00 0.00 52 1019.4
20260902170520 94 0.0 3.0 0.00 0.00 0.00 53 1019.4
20260902165520 95 0.0 3.0 0.00 0.00 0.00 56 1019.5
20260902164520 94 0.0 3.0 0.00 0.00 0.00 59 1019.6
20260902163520 94 0.0 1.0 0.00 0.00 0.00 56 1019.7
20260902162519 93 338 1.0 2.0 0.00 0.00 0.00 57 1019.8
20260902161600 93 0.0 5.0 0.00 0.00 0.00 59 1019.9
20260902160520 93 0.0 0.0 0.00 0.00 0.00 60 1019.9
20260902155520 91 0.0 0.0 0.00 0.00 0.00 63 1019.9
20260902154520 91 0.0 0.0 0.00 0.00 0.00 67 1020.0
20260902153520 91 0.0 0.0 0.00 0.00 0.00 68 1019.9
20260902152520 90 0.0 0.0 0.00 0.00 0.00 68 1019.9
20260902151520 90 0.0 0.0 0.00 0.00 0.00 67 1019.9
20260902150519 89 0.0 0.0 0.00 0.00 0.00 70 1019.9
20260902145520 87 0.0 0.0 0.00 0.00 0.00 74 1019.9
20260902144600 86 0.0 0.0 0.00 0.00 0.00 75 1020.0
20260902143600 85 0.0 0.0 0.00 0.00 0.00 77 1019.9
20260902142519 83 0.0 0.0 0.00 0.00 0.00 82 1019.9
20260902141520 81 0.0 0.0 0.00 0.00 0.00 86 1019.9
20260902140520 80 0.0 0.0 0.00 0.00 0.00 89 1019.9
20260902135520 78 0.0 0.0 0.00 0.00 0.00 95 1019.8
20260902134520 77 0.0 0.0 0.00 0.00 0.00 99 1019.9
20260902133520 76 0.0 0.0 0.00 0.00 0.00 100 1019.8
20260902132520 75 0.0 0.0 0.00 0.00 0.00 100 1019.8
20260902131520 75 0.0 0.0 0.00 0.00 0.00 100 1019.8
20260902130600 74 0.0 0.0 0.00 0.00 0.00 100 1019.7
20260902125520 73 0.0 0.0 0.00 0.00 0.00 100 1019.7
20260902124520 72 0.0 0.0 0.00 0.00 0.00 100 1019.6
20260902123600 72 0.0 0.0 0.00 0.00 0.00 100 1019.6
20260902122520 71 0.0 0.0 0.00 0.00 0.00 100 1019.5
20260902121519 70 0.0 0.0 0.00 0.00 0.00 99 1019.4
20260902120600 70 0.0 0.0 0.00 0.00 0.00 99 1019.3
20260902115520 69 0.0 0.0 0.00 0.00 0.00 99 1019.3
20260902114520 69 0.0 0.0 0.00 0.00 0.00 99 1019.2
20260902113519 69 0.0 0.0 0.00 0.00 0.00 99 1019.0
20260902112520 69 0.0 0.0 0.00 0.00 0.00 99 1019.0
20260902111520 69 0.0 0.0 0.00 0.00 0.00 99 1019.0
20260902110520 69 0.0 0.0 0.00 0.00 0.00 99 1019.1
20260902105520 69 0.0 0.0 0.00 0.00 0.00 99 1019.1
20260902104520 69 0.0 0.0 0.00 0.00 0.00 99 1019.1
20260902103520 69 0.0 0.0 0.00 0.00 0.00 99 1019.0
20260902102520 69 0.0 0.0 0.00 0.00 0.00 99 1018.9
20260902101520 69 0.0 0.0 0.00 0.00 0.00 99 1018.9
20260902100520 69 0.0 0.0 0.00 0.00 0.00 99 1018.8
20260902095520 69 0.0 0.0 0.00 0.00 0.00 99 1018.9
20260902094520 69 0.0 0.0 0.00 0.00 0.00 99 1018.9
20260902093520 69 0.0 0.0 0.00 0.00 0.00 99 1018.8
20260902092520 69 0.0 0.0 0.00 0.00 0.00 99 1018.6
20260902091520 70 0.0 0.0 0.00 0.00 0.00 99 1018.6
20260902090520 70 0.0 0.0 0.00 0.00 0.00 99 1018.4
20260902085600 70 0.0 0.0 0.00 0.00 0.00 99 1018.5
20260902084640 70 0.0 0.0 0.00 0.00 0.00 99 1018.5
20260902083520 70 0.0 0.0 0.00 0.00 0.00 99 1018.5
20260902082640 70 0.0 0.0 0.00 0.00 0.00 98 1018.4
20260902081519 70 0.0 0.0 0.00 0.00 0.00 99 1018.3
20260902080520 70 0.0 0.0 0.00 0.00 0.00 98 1018.2
20260902075520 70 0.0 0.0 0.00 0.00 0.00 98 1018.2
20260902074519 70 0.0 0.0 0.00 0.00 0.00 98 1018.2
20260902073520 70 0.0 0.0 0.00 0.00 0.00 98 1018.1
20260902072520 70 0.0 0.0 0.00 0.00 0.00 98 1018.2
20260902071519 71 0.0 0.0 0.00 0.00 0.00 98 1018.1
20260902070520 71 0.0 0.0 0.00 0.00 0.00 98 1018.2